Regional Weather Roundup
Issued by NWS State College, PA

Home | Current Version | Previous Version | Text Only | Print | Product List | Glossary On
Versions: 1 2 3 4 5 6 7 8 9 10 11 12 13 14 15 16 17 18 19 20 21 22 23 24 25 26 27 28 29 30 31 32 33 34 35 36 37 38 39 40 41 42 43 44 45 46 47 48 49 50
834
ASUS41 KCTP 040210
RWRCTP

REGIONAL WEATHER ROUNDUP
NATIONAL WEATHER SERVICE STATE COLLEGE PA
1000 PM EDT TUE MAY 03 2016

Note: "fair" indicates few or no clouds below 12,000 feet with no
significant weather and/or obstructions to visibility.

* = STATION THAT DOES NOT REPORT PRECIPITATION /E.G. RAIN...SNOW...ETC/
    THUNDER OR FOG.

PAZ002>004-007>009-013>016-020>023-029>032-040300-
WESTERN PENNSYLVANIA

CITY           SKY/WX    TMP DP  RH WIND       PRES   REMARKS
ERIE           CLEAR     45  39  79 CALM      29.83S
MEADVILLE      CLEAR     45  39  79 CALM      29.82S
FRANKLIN*      CLEAR     48  37  66 CALM      29.84S
NEW CASTLE     CLOUDY    53  38  56 N3        29.83S
BEAVER COUNTY  NOT AVBL
BUTLER*        MOCLDY    54  39  58 CALM      29.84R
PITTSBURGH INT CLOUDY    57  41  55 W5        29.81R
PITTSBURGH     CLOUDY    57  41  55 SW6       29.81R
INDIANA*       CLOUDY    55  43  62 CALM      29.84S
LATROBE        MOCLDY    55  50  82 SW7       29.82S
WASHINGTON CO* MOCLDY    48  43  81 CALM      29.83S
$$

PAZ004>006-010>012-017>019-024>028-033>037-041-042-045-046-049>053-040300-
CENTRAL PENNSYLVANIA

CITY           SKY/WX    TMP DP  RH WIND       PRES   REMARKS
BRADFORD       CLEAR     43  41  93 CALM      29.81S
DUBOIS         CLOUDY    50  42  74 N3        29.80S
CLEARFIELD     CLOUDY    56  38  50 NW6       29.80R
JOHNSTOWN      CLOUDY    52  42  69 W6        29.81R
ALTOONA        CLOUDY    56  44  64 NW3       29.80R
STATE COLLEGE  CLOUDY    54  49  86 N5        29.80R
WILLIAMSPORT   CLOUDY    54  48  80 N3        29.81R
SELINSGROVE    LGT RAIN  54  50  86 N3        29.80F
FT INDIANTOWN  MOCLDY    54  54 100 NE3       29.80S
CAPITAL CITY   CLOUDY    59  52  77 SE7       29.79S
HARRISBURG     CLOUDY    32  32 100 E9        29.79R
YORK           RAIN      57  53  86 CALM      29.80R FOG
$$

PAZ038>040-043-044-047-048-054-055-060>062-067>071-040300-
EASTERN PENNSYLVANIA

CITY           SKY/WX    TMP DP  RH WIND       PRES   REMARKS
SCRANTON       CLOUDY    51  50  96 CALM      29.81S
MOUNT POCONO   FOG       48  47  96 E5        29.81F VSB 1/4
ALLENTOWN      CLOUDY    54  51  90 E7        29.82R
QUAKERTOWN*    CLOUDY    54  54 100 E5        29.83F
READING        CLOUDY    56  51  84 SE6       29.81R
LANCASTER      PTCLDY    54  52  93 E5        29.80S
COATESVILLE    CLOUDY    54 N/A N/A MISG      29.82S
POTTSTOWN      CLOUDY    53  52  96 E5        29.83F
BLUE BELL      CLOUDY    52  50  93 E3        29.82S
DOYLESTOWN     CLOUDY    51  51 100 CALM      29.83R
WILLOW GROVE   NOT AVBL
NORTH PHILA    CLOUDY    54  50  86 E7        29.84S
PHILADELPHIA   CLOUDY    54  49  83 NE7       29.83S
$$




USA.gov is the U.S. government's official web portal to all federal, state and local government web resources and services.